Catania, Italy

8:34 PM CEST on August 29, 2016 (GMT +0200)
Fontanarossa

Weather History for LICC - April, 2014

Change the Weather History Date:

Friday, April 4, 2014

  Actual Average Record
Temperature  
Mean Temperature 63 °F -  
Max Temperature 75 °F 70 °F 75 °F (1998)
Min Temperature 51 °F 48 °F 39 °F (2001)
Degree Days  
Heating Degree Days 2    
Growing Degree Days 13 (Base 50)    
Moisture  
Dew Point 49 °F    
Average Humidity 67    
Maximum Humidity 88    
Minimum Humidity 20    
Precipitation  
Precipitation 0.00 in 0.04 in - ()
Sea Level Pressure  
Sea Level Pressure 29.71 in    
Wind  
Wind Speed 14 mph ()    
Max Wind Speed 24 mph    
Max Gust Speed 33 mph    
Visibility 5.4 miles    
Events      
Averages and records for this station are not official NWS values.
T = Trace of Precipitation, MM = Missing Value Source: Averaged Metar Reports

Daily Weather History Graph

Daily Weather History Graph

Search for Another Location

Airport or City:

Trip Planner

Search our weather history database for the weather conditions in past years. The results will help you decide how hot, cold, wet, or windy it might be!

Date:

Astronomy

Apr. 04, 2014 Rise Set
Actual Time 6:41 AM CEST 7:24 PM CEST
Civil Twilight 6:14 AM CEST 7:51 PM CEST
Nautical Twilight 5:43 AM CEST 8:22 PM CEST
Astronomical Twilight 5:11 AM CEST 8:54 PM CEST
Moon 9:48 AM CEST (4/4) No Moon Set
Length of Visible Light 13h 36m
Length of Day
12h 43m
Waxing Crescent, 23% of the Moon is Illuminated
Apr 4
Waxing Crescent
Apr 7
First Quarter
Apr 15
Full
Apr 22
Last Quarter
Apr 29
New

Hourly Weather History & Observations

Time (CEST) Temp. Dew Point Humidity Pressure Visibility Wind Dir Wind Speed Gust Speed Precip Events Conditions
12:20 AM 59.0 °F 55.4 °F 88% 29.83 in 6.2 mi ENE 17.3 mph - N/A   Mostly Cloudy
12:50 AM 59.0 °F 55.4 °F 88% 29.80 in 6.2 mi ENE 17.3 mph - N/A   Scattered Clouds
1:20 AM 59.0 °F 55.4 °F 88% 29.77 in 6.2 mi ENE 19.6 mph - N/A   Mostly Cloudy
1:50 AM 59.0 °F 55.4 °F 88% 29.77 in 6.2 mi ENE 21.9 mph - N/A   Mostly Cloudy
2:00 AM 59 °F 56 °F 85% 29.79 in 6 mi ENE 21.9 mph - -   Mostly Cloudy
2:20 AM 59.0 °F 55.4 °F 88% 29.77 in 5.6 mi ENE 21.9 mph - N/A   Mostly Cloudy
2:50 AM 59.0 °F 55.4 °F 88% 29.80 in 5.6 mi ENE 17.3 mph - N/A   Mostly Cloudy
3:20 AM 59.0 °F 55.4 °F 88% 29.77 in 5.6 mi ENE 19.6 mph - N/A   Mostly Cloudy
3:50 AM 59.0 °F 55.4 °F 88% 29.74 in 5.6 mi NE 19.6 mph - N/A   Mostly Cloudy
4:20 AM 59.0 °F 55.4 °F 88% 29.71 in 5.6 mi NE 24.2 mph - N/A   Mostly Cloudy
5:50 AM 59.0 °F 55.4 °F 88% 29.71 in 5.6 mi NE 19.6 mph 31.1 mph N/A   Mostly Cloudy
6:20 AM 59.0 °F 55.4 °F 88% 29.68 in 5.0 mi NE 20.7 mph - N/A   Partly Cloudy
6:50 AM 59.0 °F 53.6 °F 82% 29.68 in 5.6 mi NE 19.6 mph - N/A   Scattered Clouds
7:20 AM 59.0 °F 53.6 °F 82% 29.68 in 5.0 mi NE 20.7 mph - N/A   Scattered Clouds
7:50 AM 59.0 °F 53.6 °F 82% 29.68 in 5.0 mi NE 18.4 mph - N/A   Mostly Cloudy
8:00 AM 60 °F 54 °F 74% 29.69 in 6 mi NE 19.6 mph - -   Mostly Cloudy
8:20 AM 60.8 °F 53.6 °F 77% 29.68 in 5.0 mi NE 19.6 mph - N/A   Mostly Cloudy
8:50 AM 60.8 °F 53.6 °F 77% 29.68 in 5.0 mi NE 18.4 mph - N/A   Mostly Cloudy
9:20 AM 60.8 °F 53.6 °F 77% 29.68 in 5.0 mi NE 15.0 mph - N/A   Mostly Cloudy
9:50 AM 60.8 °F 51.8 °F 72% 29.68 in 5.0 mi NE 16.1 mph - N/A   Mostly Cloudy
10:20 AM 60.8 °F 53.6 °F 77% 29.68 in 5.0 mi NNE 11.5 mph - N/A   Mostly Cloudy
10:50 AM 60.8 °F 53.6 °F 77% 29.68 in 5.0 mi North 9.2 mph - N/A   Mostly Cloudy
11:00 AM 61 °F 54 °F 70% 29.70 in 6 mi North 6.9 mph - -   Mostly Cloudy
11:20 AM 62.6 °F 53.6 °F 72% 29.68 in 5.0 mi NNE 10.4 mph - N/A   Mostly Cloudy
11:50 AM 62.6 °F 53.6 °F 72% 29.68 in 5.0 mi NNE 10.4 mph - N/A   Mostly Cloudy
12:20 PM 64.4 °F 53.6 °F 68% 29.68 in 5.0 mi NNE 5.8 mph - N/A   Mostly Cloudy
12:50 PM 64.4 °F 55.4 °F 73% 29.68 in 5.0 mi East 5.8 mph - N/A   Mostly Cloudy
1:20 PM 66.2 °F 55.4 °F 68% 29.68 in 5.0 mi South 4.6 mph - N/A   Mostly Cloudy
1:50 PM 69.8 °F 51.8 °F 53% 29.65 in 5.0 mi Variable 3.5 mph - N/A   Scattered Clouds
2:00 PM 67 °F 54 °F 55% 29.68 in 5 mi ENE 4.6 mph - -   Mist
2:20 PM 66.2 °F 53.6 °F 64% 29.65 in 5.0 mi ENE 8.1 mph - N/A   Scattered Clouds
2:50 PM 64.4 °F 55.4 °F 73% 29.65 in 4.3 mi ENE 12.7 mph - N/A   Scattered Clouds
3:20 PM 68.0 °F 46.4 °F 46% 29.65 in 4.3 mi Variable 4.6 mph - N/A   Scattered Clouds
3:50 PM 73.4 °F 35.6 °F 25% 29.65 in 5.0 mi WSW 18.4 mph - N/A   Scattered Clouds
4:20 PM 71.6 °F 33.8 °F 25% 29.65 in 5.0 mi WSW 20.7 mph - N/A   Scattered Clouds
4:50 PM 69.8 °F 37.4 °F 31% 29.65 in 6.2 mi WSW 20.7 mph - N/A   Scattered Clouds
5:00 PM 70 °F 38 °F 20% 29.67 in 6 mi SW 21.9 mph - -   Partly Cloudy
5:20 PM 68.0 °F 37.4 °F 33% 29.65 in - WSW 20.7 mph - N/A   Clear
5:50 PM 68.0 °F 37.4 °F 33% 29.65 in - WSW 21.9 mph 33.4 mph N/A   Clear
6:20 PM 66.2 °F 35.6 °F 32% 29.68 in - WSW 18.4 mph - N/A   Clear
6:50 PM 64.4 °F 39.2 °F 40% 29.68 in - WSW 17.3 mph - N/A   Clear
7:20 PM 60.8 °F 39.2 °F 45% 29.71 in - WSW 10.4 mph - N/A   Clear
7:50 PM 59.0 °F 41.0 °F 51% 29.71 in - West 8.1 mph - N/A   Clear
8:00 PM 59 °F 42 °F 41% 29.74 in 6 mi West 8.1 mph - -  
8:20 PM 57.2 °F 42.8 °F 59% 29.74 in - West 9.2 mph - N/A   Clear
8:50 PM 55.4 °F 42.8 °F 63% 29.77 in - West 6.9 mph - N/A   Clear
9:20 PM 55.4 °F 44.6 °F 67% 29.77 in - WNW 5.8 mph - N/A   Clear
9:50 PM 55.4 °F 44.6 °F 67% 29.77 in - West 5.8 mph - N/A   Clear
10:20 PM 53.6 °F 44.6 °F 72% 29.77 in - WSW 6.9 mph - N/A   Clear
10:50 PM 53.6 °F 44.6 °F 72% 29.80 in - WSW 8.1 mph - N/A   Clear
11:00 PM 54 °F 45 °F 62% 29.80 in 6 mi WSW 9.2 mph - -  
11:20 PM 51.8 °F 44.6 °F 76% 29.80 in - West 6.9 mph - N/A   Clear
11:50 PM 51.8 °F 44.6 °F 76% 29.80 in - West 3.5 mph - N/A   Clear